"Pseudo-MPEC" for CDVJ372

Created 2025 Dec 5 22:35:03 UT using Find_Orb

Click here for an explanation of pseudo-MPECs

 
 Astrometry: 
     CDVJ372 1C2025 11 26.46334812 13 46.132+50 11 35.70   ~BUH5 20.84GVNEOCPG96
     CDVJ372*1C2025 11 26.46430812 13 47.208+50 11 31.67   ~BQCZ 20.48GVNEOCPG96
     CDVJ372 1C2025 11 26.47292612 13 56.870+50 10 54.59   ~BUH5 20.82GVNEOCPG96
     CDVJ372 1C2025 11 26.47388712 13 57.940+50 10 50.84   ~BQCZ 20.72GVNEOCPG96
     CDVJ372 1C2025 11 26.47773712 14 02.375+50 10 34.32   ~BUH5 20.90GVNEOCPG96
     CDVJ372 1C2025 11 26.47869812 14 03.300+50 10 31.33   ~BQCZ 20.43GVNEOCPG96
     CDVJ372 KC2025 11 26.50274212 14 30.260+50 08 48.73   ~BQCZ 21.40GVNEOCPI52
     CDVJ372 KC2025 11 26.50375812 14 31.376+50 08 44.27   ~BQCZ 21.13GVNEOCPI52
     CDVJ372 KC2025 11 26.50476412 14 32.536+50 08 39.91   ~BQCZ 20.80GVNEOCPI52
     CDVJ372 KC2025 11 26.50576912 14 33.601+50 08 35.05   ~BQCZ 21.10GVNEOCPI52
     CDVJ372 KC2025 11 26.53411312 15 05.339+50 06 34.60   ~BQDK 21.02GVNEOCPI52
     CDVJ372 KC2025 11 26.53512812 15 06.448+50 06 29.45   ~BQDK       VNEOCPI52
     CDVJ372 KC2025 11 26.53613912 15 07.711+50 06 26.28   ~BQDK       VNEOCPI52
     CDVJ372 KC2025 11 26.53716212 15 08.820+50 06 21.31   ~BQDK 21.37GVNEOCPI52

Station data:
(G96) Mt. Lemmon Survey  (N32.442729 W110.788720)  US/Arizona.  Observer E.
   J. Christensen. Measurers T. Beuden, V. F. Carvajal, D. Fay, J. B.
   Fazekas, D. C. Fuls, A. R. Gibbs, A. D. Grauer, H. Gröller, J. K. Hogan,
   R. A. Kowalski, S. M. Larson, G. J. Leonard, D. Rankin, R. L. Seaman, F.
   C. Shelly, K. W. Wierzchoś. 1.5-m reflector + 10K CCD.
(I52) Steward Observatory, Mt. Lemmon Station  (N32.442570 W110.788920)
   US/Arizona. Measurers T. Beuden, V. F. Carvajal, D. Fay, J. B. Fazekas, D.
   C. Fuls, A. R. Gibbs, A. D. Grauer, H. Gröller, J. K. Hogan, R. A.
   Kowalski, S. M. Larson, G. J. Leonard, D. Rankin, R. L. Seaman, F. C.
   Shelly, K. W. Wierzchoś. 1.0-m prime focus + CCD.

Orbital elements:  CDVJ372
   Perihelion 2026 Jan 27.553514 TT = 13:17:03.6 (JD 2461068.053514)
Epoch 2025 Nov 27.0 TT = JDT 2461006.5   Earth MOID: 0.1179   Ve: 0.0340
M 308.604715283                     Ma: 0.0177                   AutoNEOCP
n   0.834969137    Peri.  139.109150
a   1.116920941    Node    31.918293
e   0.41367110     Incl.   10.974114                      (J2000 ecliptic)
P   1.180/431.146d H   22.21    G   0.15   q 0.654883024  Q 1.578958859
From 14 observations 2025 Nov. 26 (1.8 hr); mean residual 0".55
Residuals in arcseconds: 
251126 G96  .52+  .37+    251126 G96  .54-  .66+    251126 I52  .04-  .28+    
251126 G96  .47+  .38+    251126 I52  .61-  .01+    251126 I52  .24-  .49-    
251126 G96  .05+  .43-    251126 I52  .82-  .12-    251126 I52  1.1+  .70+    
251126 G96  .06-  .13-    251126 I52  .49-  .19-    251126 I52  .79+  .14+    
251126 G96  .95+  .41-    251126 I52  1.1-  .77-    

Ephemerides (geocentric):
Date (UTC) HH   RA             Dec           delta  r     elong  mag
---- --------  ------------   ------------  ------ ------ -----  ---
2025 12 05 23  14 23 59.618   +33 55 17.81  .18893 .92517  66.1 22.2
2025 12 06 00  14 24 22.207   +33 50 40.81  .18911 .92486  66.0 22.2
2025 12 06 01  14 24 44.719   +33 46 03.98  .18929 .92455  66.0 22.2
2025 12 06 02  14 25 07.153   +33 41 27.33  .18946 .92424  65.9 22.2
2025 12 06 03  14 25 29.511   +33 36 50.87  .18964 .92393  65.8 22.2
2025 12 06 04  14 25 51.792   +33 32 14.58  .18982 .92363  65.7 22.2
2025 12 06 05  14 26 13.997   +33 27 38.48  .19001 .92332  65.6 22.2
2025 12 06 06  14 26 36.125   +33 23 02.57  .19019 .92301  65.6 22.2
2025 12 06 07  14 26 58.178   +33 18 26.84  .19037 .92270  65.5 22.2
2025 12 06 08  14 27 20.156   +33 13 51.31  .19055 .92239  65.4 22.3
2025 12 06 09  14 27 42.059   +33 09 15.97  .19074 .92209  65.3 22.3
2025 12 06 10  14 28 03.888   +33 04 40.83  .19092 .92178  65.2 22.3
2025 12 06 11  14 28 25.642   +33 00 05.90  .19110 .92147  65.2 22.3
2025 12 06 12  14 28 47.322   +32 55 31.16  .19129 .92116  65.1 22.3
2025 12 06 13  14 29 08.928   +32 50 56.62  .19148 .92085  65.0 22.3
2025 12 06 14  14 29 30.462   +32 46 22.30  .19166 .92055  64.9 22.3
2025 12 06 15  14 29 51.922   +32 41 48.18  .19185 .92024  64.8 22.3
2025 12 06 16  14 30 13.310   +32 37 14.27  .19204 .91993  64.8 22.3
2025 12 06 17  14 30 34.625   +32 32 40.58  .19222 .91962  64.7 22.3
2025 12 06 18  14 30 55.868   +32 28 07.10  .19241 .91931  64.6 22.3
2025 12 06 19  14 31 17.040   +32 23 33.84  .19260 .91900  64.5 22.3
2025 12 06 20  14 31 38.140   +32 19 00.80  .19279 .91870  64.4 22.3
2025 12 06 21  14 31 59.170   +32 14 27.98  .19298 .91839  64.4 22.3
2025 12 06 22  14 32 20.128   +32 09 55.39  .19317 .91808  64.3 22.3
2025 12 06 23  14 32 41.016   +32 05 23.02  .19337 .91777  64.2 22.3
2025 12 07 00  14 33 01.834   +32 00 50.88  .19356 .91746  64.1 22.3
2025 12 07 01  14 33 22.583   +31 56 18.97  .19375 .91716  64.1 22.3
2025 12 07 02  14 33 43.261   +31 51 47.29  .19394 .91685  64.0 22.3
2025 12 07 03  14 34 03.871   +31 47 15.84  .19414 .91654  63.9 22.4
2025 12 07 04  14 34 24.412   +31 42 44.63  .19433 .91623  63.8 22.4
2025 12 07 05  14 34 44.884   +31 38 13.66  .19453 .91592  63.7 22.4
2025 12 07 06  14 35 05.288   +31 33 42.93  .19472 .91562  63.7 22.4
2025 12 07 07  14 35 25.624   +31 29 12.44  .19492 .91531  63.6 22.4
2025 12 07 08  14 35 45.893   +31 24 42.19  .19512 .91500  63.5 22.4
2025 12 07 09  14 36 06.094   +31 20 12.19  .19531 .91469  63.4 22.4
2025 12 07 10  14 36 26.228   +31 15 42.44  .19551 .91438  63.4 22.4
2025 12 07 11  14 36 46.296   +31 11 12.93  .19571 .91408  63.3 22.4
2025 12 07 12  14 37 06.297   +31 06 43.68  .19591 .91377  63.2 22.4
2025 12 07 13  14 37 26.232   +31 02 14.68  .19611 .91346  63.1 22.4
2025 12 07 14  14 37 46.101   +30 57 45.93  .19631 .91315  63.1 22.4
2025 12 07 15  14 38 05.905   +30 53 17.43  .19651 .91284  63.0 22.4
2025 12 07 16  14 38 25.643   +30 48 49.20  .19671 .91254  62.9 22.4
2025 12 07 17  14 38 45.317   +30 44 21.22  .19691 .91223  62.8 22.4
2025 12 07 18  14 39 04.926   +30 39 53.50  .19712 .91192  62.8 22.4
2025 12 07 19  14 39 24.471   +30 35 26.05  .19732 .91161  62.7 22.4
2025 12 07 20  14 39 43.951   +30 30 58.86  .19752 .91130  62.6 22.4
2025 12 07 21  14 40 03.368   +30 26 31.93  .19773 .91100  62.5 22.4
2025 12 07 22  14 40 22.722   +30 22 05.27  .19793 .91069  62.5 22.5